Weather History for LEPA - October, 2010

Change the Weather History Date:

Sunday, October 17, 2010

  Actual Average Record
Temperature  
Mean Temperature 56 °F -  
Max Temperature 61 °F 68 °F 83 °F (2013)
Min Temperature 50 °F 50 °F 50 °F (2010)
Degree Days  
Heating Degree Days 10    
Growing Degree Days 6 (Base 50)    
Moisture  
Dew Point 52 °F    
Average Humidity 88    
Maximum Humidity 100    
Minimum Humidity 68    
Precipitation  
Precipitation 0.04 in 0.07 in - ()
Sea Level Pressure  
Sea Level Pressure 29.92 in    
Wind  
Wind Speed 4 mph ()    
Max Wind Speed 18 mph    
Max Gust Speed 20 mph    
Visibility 6.5 miles    
Events Rain , Thunderstorm    
Averages and records for this station are not official NWS values.
T = Trace of Precipitation, MM = Missing Value Source: Averaged Metar Reports

Daily Weather History Graph

Daily Weather History Graph

Search for Another Location

Airport or City:

Trip Planner

Search our weather history database for the weather conditions in past years. The results will help you decide how hot, cold, wet, or windy it might be!

Date:

Astronomy

Oct. 17, 2010 Rise Set
Actual Time 8:00 AM CEST 7:07 PM CEST
Civil Twilight 7:33 AM CEST 7:34 PM CEST
Nautical Twilight 7:02 AM CEST 8:05 PM CEST
Astronomical Twilight 6:31 AM CEST 8:36 PM CEST
Moon 4:19 PM CEST (10/17) 2:38 AM CEST (10/17)
Length of Visible Light 12h 00m
Length of Day
11h 06m
Waxing Gibbous, 73% of the Moon is Illuminated
Oct 17
Waxing Gibbous
Oct 23
Full
Oct 30
Last Quarter
Nov 6
New
Nov 13
First Quarter

Hourly Weather History & Observations

Time (CEST) Temp. Dew Point Humidity Pressure Visibility Wind Dir Wind Speed Gust Speed Precip Events Conditions
12:00 AM 53.6 °F 51.8 °F 94% 29.89 in 6.2 mi NNE 1.2 mph - N/A   Partly Cloudy
12:30 AM 51.8 °F 50.0 °F 94% 29.89 in 6.2 mi NNE 2.3 mph - N/A   Partly Cloudy
1:00 AM 51.8 °F 50.0 °F 94% 29.89 in 6.2 mi Calm Calm - N/A   Partly Cloudy
1:30 AM 51.8 °F 50.0 °F 94% 29.89 in 6.2 mi Calm Calm - N/A   Partly Cloudy
2:00 AM 51 °F 50 °F 94% 29.91 in 11 mi Calm Calm - -   Scattered Clouds
2:00 AM 51.8 °F 50.0 °F 94% 29.89 in 6.2 mi Calm Calm - N/A   Partly Cloudy
2:30 AM 51.8 °F 50.0 °F 94% 29.89 in 6.2 mi Calm Calm - N/A   Partly Cloudy
3:00 AM 50.0 °F 48.2 °F 94% 29.89 in 6.2 mi ENE 3.5 mph - N/A   Scattered Clouds
3:30 AM 51.8 °F 50.0 °F 94% 29.89 in 6.2 mi NE 2.3 mph - N/A   Scattered Clouds
4:00 AM 51.8 °F 50.0 °F 94% 29.89 in 6.2 mi Variable 1.2 mph - N/A   Scattered Clouds
4:30 AM 51.8 °F 50.0 °F 94% 29.89 in 6.2 mi Variable 1.2 mph - N/A   Scattered Clouds
5:00 AM 51.8 °F 50.0 °F 94% 29.89 in 6.2 mi Variable 1.2 mph - N/A   Scattered Clouds
5:30 AM 51.8 °F 50.0 °F 94% 29.89 in 6.2 mi Variable 2.3 mph - N/A   Scattered Clouds
6:00 AM 51.8 °F 50.0 °F 94% 29.89 in 6.2 mi ENE 4.6 mph - N/A   Scattered Clouds
6:30 AM 51.8 °F 51.8 °F 100% 29.89 in 6.2 mi NE 8.1 mph - N/A   Scattered Clouds
7:00 AM 53.6 °F 51.8 °F 94% 29.89 in 6.2 mi NE 8.1 mph - N/A   Scattered Clouds
7:30 AM 53.6 °F 51.8 °F 94% 29.89 in 6.2 mi ENE 6.9 mph - N/A   Scattered Clouds
8:00 AM 54 °F 53 °F 93% 29.90 in 12 mi Calm Calm - -   Scattered Clouds
8:00 AM 53.6 °F 51.8 °F 94% 29.89 in 6.2 mi ENE 6.9 mph - N/A   Scattered Clouds
8:30 AM 53.6 °F 51.8 °F 94% 29.89 in 6.2 mi NE 5.8 mph - N/A   Scattered Clouds
9:00 AM 55.4 °F 53.6 °F 94% 29.89 in 6.2 mi ENE 4.6 mph - N/A   Scattered Clouds
9:30 AM 57.2 °F 55.4 °F 94% 29.89 in 6.2 mi NE 4.6 mph - N/A   Scattered Clouds
10:00 AM 57.2 °F 55.4 °F 94% 29.92 in 6.2 mi NE 5.8 mph - N/A   Scattered Clouds
10:30 AM 59.0 °F 55.4 °F 88% 29.92 in 6.2 mi NE 9.2 mph - N/A   Scattered Clouds
11:00 AM 60.8 °F 55.4 °F 82% 29.92 in 6.2 mi NE 12.7 mph - N/A   Scattered Clouds
11:30 AM 59.0 °F 53.6 °F 82% 29.92 in 6.2 mi NE 17.3 mph - N/A   Scattered Clouds
12:00 PM 59.0 °F 53.6 °F 82% 29.95 in 6.2 mi NE 18.4 mph - N/A   Mostly Cloudy
12:30 PM 59.0 °F 53.6 °F 82% 29.95 in 6.2 mi NE 16.1 mph - N/A Rain Light Rain
1:00 PM 59.0 °F 53.6 °F 82% 29.95 in 6.2 mi NE 13.8 mph - N/A   Mostly Cloudy
1:30 PM 57.2 °F 53.6 °F 88% 29.95 in 6.2 mi North 6.9 mph 19.6 mph N/A   Mostly Cloudy
2:00 PM 58 °F 54 °F 82% 29.94 in 9 mi ENE 6.9 mph - -   Partly Cloudy
2:00 PM 59.0 °F 53.6 °F 82% 29.92 in 6.2 mi NE 8.1 mph - N/A   Mostly Cloudy
2:30 PM 59.0 °F 53.6 °F 82% 29.92 in 6.2 mi NE 6.9 mph - N/A   Scattered Clouds
3:00 PM 60.8 °F 53.6 °F 77% 29.92 in 6.2 mi NE 10.4 mph - N/A   Scattered Clouds
3:30 PM 60.8 °F 53.6 °F 77% 29.89 in 6.2 mi ENE 9.2 mph - N/A   Scattered Clouds
4:00 PM 60.8 °F 51.8 °F 72% 29.92 in 6.2 mi ENE 6.9 mph - N/A   Mostly Cloudy
4:30 PM 60.8 °F 51.8 °F 72% 29.89 in 6.2 mi East 5.8 mph - N/A   Mostly Cloudy
5:00 PM 60.8 °F 50.0 °F 68% 29.92 in 6.2 mi NE 4.6 mph - N/A   Mostly Cloudy
5:30 PM 60.8 °F 51.8 °F 72% 29.92 in 6.2 mi NNE 5.8 mph - N/A Rain Light Rain
6:00 PM 59.0 °F 53.6 °F 82% 29.92 in 6.2 mi Variable 1.2 mph - N/A   Mostly Cloudy
6:30 PM 59.0 °F 53.6 °F 82% 29.92 in 6.2 mi Calm Calm - N/A   Mostly Cloudy
7:00 PM 57.2 °F 53.6 °F 88% 29.92 in 6.2 mi Variable 2.3 mph - N/A   Scattered Clouds
7:30 PM 57.2 °F 53.6 °F 88% 29.95 in 6.2 mi NW 2.3 mph - N/A   Scattered Clouds
7:47 PM 57.2 °F 53.6 °F 88% 29.95 in 6.2 mi NW 5.8 mph 17.3 mph N/A Rain Rain
8:00 PM 57 °F 53 °F 81% 29.95 in 12 mi North 6.9 mph - - Rain Light Rain
8:00 PM 57.2 °F 53.6 °F 88% 29.95 in 6.2 mi NNW 9.2 mph - N/A Rain Light Rain
8:30 PM 55.4 °F 51.8 °F 88% 29.95 in 6.2 mi NNE 5.8 mph - N/A   Scattered Clouds
9:00 PM 55.4 °F 50.0 °F 82% 29.95 in 6.2 mi NE 4.6 mph - N/A   Scattered Clouds
9:30 PM 55.4 °F 51.8 °F 88% 29.95 in 6.2 mi Variable 2.3 mph - N/A   Scattered Clouds
10:00 PM 53.6 °F 51.8 °F 94% 29.98 in 6.2 mi NE 2.3 mph - N/A   Scattered Clouds
10:30 PM 51.8 °F 50.0 °F 94% 29.98 in 6.2 mi Variable 2.3 mph - N/A   Scattered Clouds
11:00 PM 51.8 °F 50.0 °F 94% 29.98 in 6.2 mi NNE 5.8 mph - N/A   Scattered Clouds
11:30 PM 51.8 °F 50.0 °F 94% 29.98 in 6.2 mi Variable 1.2 mph - N/A   Scattered Clouds
11:40 PM 51.8 °F 50.0 °F 94% 29.98 in 6.2 mi NE 6.9 mph - N/A Thunderstorm Scattered Clouds
11:48 PM 53.6 °F 50.0 °F 88% 29.98 in 6.2 mi NE 8.1 mph - N/A Rain , Thunderstorm Rain